Date String (YYYY-MM-DD hh:mm:ss) UTC,Instrument flags,absolute air pressure of the measurement (hPa),sample flow rate (lpm),inlet stack bypass flow (lpm),air temperature of the measurement (°C),ambient temperature measured by the external sensor (°C),aerosol sample conditioner tube jacket temperature (°C),OPC LED temperature (°C),internal box temperature (°C),relative humidity of the measurement (%),span deviation,mass concentration of particles derived from Lorenz-Mie calculation of OPC scattering (μg/m³),mass concentration of particles derived from Lorenz-Mie calculation of OPC scattering (μg/m³),mass concentration of particles derived from Lorenz-Mie calculation of OPC scattering (μg/m³)
DateTimeUTC,F1_M11,P_M11,Q1_M11,Q2_M11,T1_M11,T2_M11,T3_M11,T4_M11,T5_M11,U1_M11,ZSPAN_M11,X2_M11,X0_M11,X1_M11
2023-12-23 02:00:00,SystemResetWarning,0827.1,5.00,000.00,026.0,025.3,000.0,034.3,027.4,11.2,0000.0,0003.45,0008.20,0003.13
2023-12-23 02:01:00,SystemResetWarning,0827.1,5.00,000.00,026.0,025.3,000.0,034.3,027.4,11.2,0000.0,0003.37,0008.84,0003.06
2023-12-23 02:02:00,SystemResetWarning,0827.2,5.00,000.00,026.0,025.3,000.0,034.3,027.4,11.2,0000.0,0003.42,0009.30,0003.09
2023-12-23 02:03:00,SystemResetWarning,0827.1,5.00,000.00,026.0,025.3,000.0,034.3,027.4,11.2,0000.0,0003.42,0009.15,0003.09
2023-12-23 02:04:00,SystemResetWarning,0827.2,5.00,000.00,026.0,025.3,000.0,034.3,027.4,11.2,0000.0,0003.40,0009.34,0003.03
2023-12-23 02:05:00,SystemResetWarning,0827.1,5.01,000.00,026.0,025.3,000.0,034.4,027.4,11.2,0000.0,0003.26,0008.74,0002.82
2023-12-23 02:06:00,SystemResetWarning,0827.1,5.00,000.00,026.0,025.3,000.0,034.4,027.4,11.2,0000.0,0003.18,0008.49,0002.72
2023-12-23 02:07:00,SystemResetWarning,0827.1,5.00,000.00,026.0,025.3,000.0,034.4,027.4,11.2,0000.0,0003.14,0008.43,0002.65
2023-12-23 02:08:00,SystemResetWarning,0827.1,5.00,000.00,026.0,025.3,000.0,034.4,027.4,11.3,0000.0,0003.11,0008.66,0002.60
2023-12-23 02:09:00,SystemResetWarning,0827.2,5.00,000.00,026.0,025.3,000.0,034.4,027.4,11.3,0000.0,0003.11,0008.60,0002.61
2023-12-23 02:10:00,SystemResetWarning,0827.2,5.00,000.00,026.0,025.3,000.0,034.4,027.4,11.4,0000.0,0003.11,0008.71,0002.59
2023-12-23 02:11:00,SystemResetWarning,0827.1,5.00,000.00,026.0,025.3,000.0,034.4,027.4,11.4,0000.0,0003.01,0008.61,0002.50
2023-12-23 02:12:00,SystemResetWarning,0827.1,5.00,000.00,026.0,025.2,000.0,034.4,027.4,11.4,0000.0,0002.73,0007.05,0002.27
2023-12-23 02:13:00,SystemResetWarning,0827.2,5.00,000.00,026.0,025.2,000.0,034.4,027.4,11.4,0000.0,0002.53,0005.76,0002.10
2023-12-23 02:14:00,SystemResetWarning,0827.1,5.00,000.00,026.0,025.2,000.0,034.4,027.4,11.5,0000.0,0002.77,0006.07,0002.34
2023-12-23 02:15:00,SystemResetWarning,0827.1,5.00,000.00,026.0,025.2,000.0,034.4,027.4,11.5,0000.0,0003.22,0007.40,0002.82
2023-12-23 02:16:00,SystemResetWarning,0827.2,5.00,000.00,026.0,025.2,000.0,034.4,027.4,11.6,0000.0,0003.54,0008.53,0003.23
2023-12-23 02:17:00,SystemResetWarning,0827.1,5.00,000.00,026.0,025.2,000.0,034.4,027.4,11.6,0000.0,0003.91,0009.19,0003.54
2023-12-23 02:18:00,SystemResetWarning,0827.2,5.00,000.00,026.0,025.3,000.0,034.4,027.4,11.5,0000.0,0004.31,0010.24,0003.87
2023-12-23 02:19:00,SystemResetWarning,0827.2,5.00,000.00,026.0,025.3,000.0,034.4,027.4,11.5,0000.0,0004.68,0011.22,0004.17
2023-12-23 02:20:00,SystemResetWarning,0827.1,5.00,000.00,026.1,025.3,000.0,034.4,027.5,11.4,0000.0,0005.04,0011.92,0004.47
2023-12-23 02:21:00,SystemResetWarning,0827.1,5.01,000.00,026.1,025.3,000.0,034.4,027.5,11.5,0000.0,0005.47,0012.64,0004.81
2023-12-23 02:22:00,SystemResetWarning,0827.1,5.00,000.00,026.1,025.3,000.0,034.4,027.5,11.5,0000.0,0005.96,0014.18,0005.18
2023-12-23 02:23:00,SystemResetWarning,0827.2,5.00,000.00,026.1,025.3,000.0,034.4,027.5,11.5,0000.4,0006.41,0015.83,0005.57
2023-12-23 02:24:00,SystemResetWarning,0827.1,5.00,000.00,026.1,025.3,000.0,034.4,027.5,11.5,0006.1,0006.86,0016.91,0005.95
2023-12-23 02:25:00,SystemResetWarning,0827.1,5.00,000.00,026.1,025.3,000.0,034.4,027.5,11.5,0003.3,0007.06,0018.43,0006.10
2023-12-23 02:26:00,SystemResetWarning,0827.1,5.00,000.00,026.1,025.3,000.0,034.4,027.5,11.4,0001.2,0007.11,0018.36,0006.14
2023-12-23 02:27:00,SystemResetWarning,0827.2,5.00,000.00,026.1,025.3,000.0,034.4,027.5,11.4,0000.0,0007.15,0017.46,0006.15
2023-12-23 02:28:00,SystemResetWarning,0827.1,4.99,000.00,026.1,025.3,000.0,034.4,027.5,11.4,0000.0,0007.21,0018.12,0006.20
2023-12-23 02:29:00,SystemResetWarning,0827.1,5.00,000.00,026.1,025.2,000.0,034.4,027.5,11.4,0001.4,0007.34,0018.37,0006.27
2023-12-23 02:30:00,SystemResetWarning,0827.2,5.00,000.00,026.1,025.2,000.0,034.4,027.5,11.4,0005.8,0007.44,0017.92,0006.34
2023-12-23 02:31:00,SystemResetWarning,0827.1,5.01,000.00,026.1,025.2,000.0,034.4,027.5,11.4,0006.1,0007.53,0018.15,0006.42
2023-12-23 02:32:00,SystemResetWarning,0827.1,5.00,000.00,026.1,025.2,000.0,034.4,027.5,11.4,0006.2,0007.55,0019.26,0006.45
2023-12-23 02:33:00,SystemResetWarning,0827.1,4.99,000.00,026.1,025.3,000.0,034.4,027.5,11.4,0006.2,0007.52,0019.01,0006.45
2023-12-23 02:34:00,SystemResetWarning,0827.1,4.99,000.00,026.1,025.3,000.0,034.4,027.5,11.4,0006.0,0007.47,0018.78,0006.40
2023-12-23 02:35:00,SystemResetWarning,0827.1,4.99,000.00,026.1,025.3,000.0,034.4,027.5,11.4,0001.7,0007.39,0019.26,0006.34
2023-12-23 02:36:00,SystemResetWarning,0827.1,5.02,000.00,026.1,025.3,000.0,034.4,027.5,11.4,0002.2,0007.41,0019.88,0006.35
2023-12-23 02:37:00,SystemResetWarning,0827.0,4.99,000.00,026.1,025.3,000.0,034.4,027.5,11.4,0007.0,0007.47,0020.26,0006.37
2023-12-23 02:38:00,SystemResetWarning,0827.1,4.99,000.00,026.1,025.3,000.0,034.4,027.5,11.4,0004.5,0007.51,0020.64,0006.39
2023-12-23 02:39:00,SystemResetWarning,0827.1,5.00,000.00,026.2,025.3,000.0,034.4,027.5,11.3,0005.3,0007.49,0020.29,0006.37
2023-12-23 02:40:00,SystemResetWarning,0827.1,5.00,000.00,026.2,025.3,000.0,034.4,027.5,11.3,0005.2,0007.41,0020.42,0006.33
2023-12-23 02:41:00,SystemResetWarning,0827.0,5.01,000.00,026.2,025.3,000.0,034.4,027.5,11.3,0004.1,0007.40,0020.61,0006.31
2023-12-23 02:42:00,SystemResetWarning,0827.0,5.00,000.00,026.2,025.3,000.0,034.4,027.5,11.3,0003.8,0007.40,0020.86,0006.29
2023-12-23 02:43:00,SystemResetWarning,0827.0,5.00,000.00,026.2,025.3,000.0,034.4,027.6,11.3,0003.8,0007.36,0020.13,0006.25
2023-12-23 02:44:00,SystemResetWarning,0827.0,5.00,000.00,026.2,025.3,000.0,034.4,027.6,11.2,0003.2,0007.24,0019.46,0006.18
2023-12-23 02:45:00,SystemResetWarning,0827.0,5.00,000.00,026.2,025.3,000.0,034.4,027.6,11.2,0002.4,0007.27,0018.99,0006.17
2023-12-23 02:46:00,SystemResetWarning,0827.0,4.99,000.00,026.2,025.3,000.0,034.4,027.5,11.2,0003.1,0007.28,0018.35,0006.14
2023-12-23 02:47:00,SystemResetWarning,0827.0,4.99,000.00,026.2,025.3,000.0,034.4,027.5,11.3,0003.5,0007.20,0016.42,0006.09
2023-12-23 02:48:00,SystemResetWarning,0827.0,5.01,000.00,026.2,025.2,000.0,034.4,027.6,11.3,0003.7,0007.08,0015.13,0006.03
2023-12-23 02:49:00,SystemResetWarning,0826.9,5.01,000.00,026.2,025.2,000.0,034.4,027.5,11.3,0000.2,0007.00,0014.64,0005.98
2023-12-23 02:50:00,SystemResetWarning,0826.9,4.99,000.00,026.2,025.2,000.0,034.4,027.6,11.3,0000.0,0006.94,0014.17,0005.93
2023-12-23 02:51:00,SystemResetWarning,0827.0,4.99,000.00,026.2,025.2,000.0,034.4,027.5,11.3,0000.0,0006.81,0013.61,0005.87
2023-12-23 02:52:00,SystemResetWarning,0827.0,5.00,000.00,026.1,025.2,000.0,034.5,027.5,11.3,0000.0,0006.72,0013.60,0005.80
2023-12-23 02:53:00,SystemResetWarning,0827.0,5.00,000.00,026.1,025.2,000.0,034.5,027.5,11.1,0000.0,0006.70,0013.41,0005.76
2023-12-23 02:54:00,SystemResetWarning,0826.9,4.99,000.00,026.1,025.2,000.0,034.4,027.5,11.1,0000.0,0006.65,0013.01,0005.74
2023-12-23 02:55:00,SystemResetWarning,0826.9,5.02,000.00,026.1,025.2,000.0,034.4,027.5,11.2,0000.0,0006.63,0012.44,0005.72
2023-12-23 02:56:00,SystemResetWarning,0826.9,5.00,000.00,026.1,025.1,000.0,034.4,027.5,11.2,0000.0,0006.58,0011.88,0005.70
2023-12-23 02:57:00,SystemResetWarning,0826.9,5.00,000.00,026.1,025.1,000.0,034.4,027.5,11.2,0000.0,0006.57,0012.12,0005.70
2023-12-23 02:58:00,SystemResetWarning,0827.0,5.00,000.00,026.1,025.1,000.0,034.4,027.5,11.2,0002.2,0006.59,0013.49,0005.72
2023-12-23 02:59:00,SystemResetWarning,0826.9,4.99,000.00,026.1,025.1,000.0,034.4,027.5,11.2,0000.6,0006.59,0013.93,0005.69
